Location: San Vito
(41.8833°N, 12.9833°E)
Time: 03:41:08
(UTC+00:00)

Cosmos 858 Rocket - Pass Details

Date: 17 November 2019
Orbit: 756 x 775 km, 74.1° (Epoch: 05 December)

Event Time Altitude Azimuth Distance (km) Brightness Sun altitude
Exits shadow 04:03:00 14° 208° (SSW) 2,012 6.5 -21.6°
Maximum altitude 04:07:27 70° 291° (WNW) 805 4.3 -20.8°
Drops below altitude 10° 04:12:39 10° 15° (NNE) 2,293 7.0 -19.8°
Sets 04:15:02 0° 18° (NNE) 3,225 7.9 -19.4°
